Theta_e
317 318 317 315 313 311 314 314 312 313 310 310 309 313 311 308 307 309 310 309 307 303
318 316 311 310 309 311 311 310 310 308 308 311 310 306 305 308 309 310 309 307 306 306
311 311 309 308 308 306 306 306 306 305 305 304 307 308 309 309 308 308 306 306 307 307
309 310 309 307 306 306 304 304 304 304 304 307 308 307 306 307 308 307 307 308 308 308
308 307 305 305 304 304 303 303 304 304 306 306 305 304 304 305 307 307 306 307 307 307
304 303 302 303 303 303 303 304 303 304 304 304 304 302 302 306 308 309 308 308 307 307
303 302 303 303 303 303 304 303 304 304 304 304 302 303 303 307 308 308 309 309 309 310
303 304 304 303 303 304 303 304 304 304 303 302 304 305 304 306 307 308 308 308 311 309
304 304 304 304 304 303 303 303 303 303 303 304 305 303 304 306 306 306 307 306 309 311
305 304 304 305 304 303 302 302 302 303 303 305 305 302 303 307 304 307 306 306 307 308
306 305 305 306 302 302 302 302 302 302 303 303 307 302 303 305 302 307 306 306 305 305
305 304 304 303 302 302 302 302 302 302 304 304 303 300 302 303 302 306 305 305 304 304
304 303 302 302 303 302 301 303 304 304 303 305 303 299 301 304 302 304 304 303 303 302
304 303 303 302 302 302 302 302 301 302 303 305 304 304 299 303 304 302 302 303 301 300
Wind_Speed
6 4 4 4 4 4 3 3 5 3 5 5 4 4 4 3 4 4 4 5 4 3
6 7 6 6 5 4 4 5 4 5 5 5 5 5 5 3 5 4 4 4 4 4
7 6 4 3 5 4 4 5 5 6 6 6 5 5 5 5 5 4 3 3 5 3
6 6 6 5 5 5 5 6 6 6 6 5 6 6 6 6 5 5 5 4 4 4
5 5 6 6 6 6 6 6 6 6 5 6 6 6 6 6 5 5 5 5 4 4
6 6 6 6 6 6 6 7 7 6 6 6 6 6 6 5 6 7 6 5 6 5
6 5 5 6 6 7 6 6 7 7 6 6 5 5 5 6 6 8 7 7 6 6
5 5 6 6 7 6 6 6 6 6 6 6 5 4 7 8 8 8 7 8 8 6
6 6 7 6 7 7 7 7 6 6 6 7 6 15 15 9 8 7 8 8 8 7
6 6 6 6 7 7 7 6 7 6 6 8 7 16 11 12 7 8 8 9 8 9
6 6 6 6 7 6 5 6 5 6 7 6 8 13 11 12 7 8 10 9 9 9
6 6 6 7 7 5 5 5 5 5 7 8 7 14 10 8 6 9 10 9 9 9
5 5 6 6 6 4 3 3 3 6 7 10 8 13 8 7 4 8 7 8 8 13
6 6 5 5 4 5 5 5 5 5 5 6 10 9 9 9 5 4 5 6 5 5
Wind_Direction
62 60 47 34 9 14 11 353 341 335 342 323 295 321 305 274 277 265 256 258 247 242
52 49 44 39 33 9 1 339 337 360 348 339 343 334 307 275 273 266 267 257 254 245
60 64 63 48 27 4 333 342 350 348 350 336 322 326 315 306 293 295 289 275 264 247
42 34 26 22 3 353 344 345 339 342 325 329 327 326 330 317 338 344 318 302 280 259
37 26 27 17 1 350 350 349 342 319 328 338 331 351 1 351 347 336 325 320 316 285
36 32 24 10 6 4 360 347 328 349 353 344 346 2 353 335 326 311 298 275 260 246
41 30 9 7 7 4 350 346 346 357 8 11 349 359 340 323 319 313 321 321 299 264
28 21 13 18 7 349 352 352 354 11 16 349 344 342 328 328 334 345 349 358 19 65
24 14 5 9 4 356 357 0 10 16 3 348 343 339 351 7 36 16 16 17 23 40
18 16 5 9 7 360 3 9 11 4 359 347 348 355 5 43 30 31 29 31 41 58
21 11 347 17 1 358 3 8 359 359 357 0 7 2 36 41 29 39 40 40 48 66
20 7 2 3 347 347 5 15 12 2 4 6 4 3 38 42 36 47 43 43 48 65
14 8 360 352 345 331 355 29 43 27 12 15 5 12 39 46 39 59 50 46 52 56
2 356 12 352 355 356 23 38 41 41 9 13 21 18 27 46 46 54 59 58 51 58